Content
SEND FEEDBACK

Daily
Averages
Monthly
Summary
Brazil

FLORIANOPOLIS, SANTA CATARINA


Home > South America > Brazil > Santa Catarina
Elevation: 16 feet     Latitude: 27 40S     Longitude: 048 33W

WEATHER
 
SELECT A DAY
Number of Records: 185,455;   Date Range: 6/30/96 - 10/20/14
 
SHARE

PRINT THIS DATA

[ ← Previous Day ]
WEATHER ALMANAC - JULY 23, 2014
[ Next Day → ]
[ °C ]   °F
Weather ElementAverageHighLow
Temperature68.8 °F74 °F (3:00 pm)66 °F (3:00 am)
Dewpoint62.2 °F64.4 °F (9:00 pm)60.8 °F (1:00 am)
Humidity78.8 %88 % (4:00 am)57 % (3:00 pm)
Barometer29.94 in30.06 in (1:00 am)29.83 in (7:00 pm)
Wind Speed9.1 mph15 mph (11:00 am)
Weather ElementAverage
Visibility7.7 mi
Wind DirectionNNW (330 °)

Weather ElementTotal
Precipitation---
Cooling Degree Days5 (Base 65)
Growing Degree Days20 (Base 50)
Averaged from 54 records on July 23, 2014
WEATHER CONDITIONS BREAKOUT
WIND DIRECTION BREAKOUT
WEATHER BY HOUR - JULY 23, 2014
[ °C ]   °F
Local TimeTemperatureDewpointHumidityBarometerVisibilityWind DirectionWind SpeedGust SpeedPrecipitationEventsConditions
1:00 AM68.0 °F60.8 °F78 %30.06 in6.2 miNNW (340°)5.8 mphMostly Cloudy
1:00 AM68.0 °F60.8 °F78 %30.06 in6.2 miNNW (340°)5.8 mphMostly Cloudy
2:00 AM68.0 °F60.8 °F78 %30.04 in6.2 miNW (310°)6.9 mphMostly Cloudy
2:00 AM68.0 °F60.8 °F78 %30.04 in6.2 miNW (310°)6.9 mphMostly Cloudy
3:00 AM66.0 °F61.0 °F80 %30.04 in12.0 miNW (320°)3.5 mphMostly Cloudy
3:00 AM66.2 °F60.8 °F83 %30.04 in6.2 miNW (320°)3.5 mphMostly Cloudy
3:00 AM66.0 °F61.0 °F80 %30.04 in12.0 miNW (320°)3.5 mphMostly Cloudy
3:00 AM66.2 °F60.8 °F83 %30.04 in6.2 miNW (320°)3.5 mphMostly Cloudy
4:00 AM66.2 °F62.6 °F88 %30.01 in6.2 miNW (310°)4.6 mphMostly Cloudy
4:00 AM66.2 °F62.6 °F88 %30.01 in6.2 miNW (310°)4.6 mphMostly Cloudy
5:00 AM66.2 °F60.8 °F83 %30.01 in6.2 miNNW (340°)6.9 mphMostly Cloudy
5:00 AM66.2 °F60.8 °F83 %30.01 in6.2 miNNW (340°)6.9 mphMostly Cloudy
6:00 AM66.2 °F60.8 °F83 %30.01 in6.2 miNNW (330°)9.2 mphScattered Clouds
6:00 AM66.2 °F60.8 °F83 %30.01 in6.2 miNNW (330°)9.2 mphScattered Clouds
7:00 AM66.2 °F62.6 °F88 %29.98 in6.2 miNW (320°)4.6 mphMostly Cloudy
7:00 AM66.2 °F62.6 °F88 %29.98 in6.2 miNW (320°)4.6 mphMostly Cloudy
8:00 AM66.2 °F62.6 °F88 %30.01 in6.2 miNW (310°)9.2 mphMostly Cloudy
8:00 AM66.2 °F62.6 °F88 %30.01 in6.2 miNW (310°)9.2 mphMostly Cloudy
9:00 AM68.0 °F60.8 °F78 %30.01 in6.2 miNW (320°)12.7 mphMostly Cloudy
9:00 AM68.0 °F62.0 °F74 %30.01 in12.0 miNW (320°)12.7 mphOvercast
9:00 AM68.0 °F62.0 °F74 %30.01 in12.0 miNW (320°)12.7 mphOvercast
9:00 AM68.0 °F60.8 °F78 %30.01 in6.2 miNW (320°)12.7 mphMostly Cloudy
10:00 AM68.0 °F62.6 °F83 %30.01 in6.2 miNW (320°)13.8 mphMostly Cloudy
10:00 AM68.0 °F62.6 °F83 %30.01 in6.2 miNW (320°)13.8 mphMostly Cloudy
11:00 AM71.6 °F62.6 °F73 %29.98 in6.2 miNorth (350°)15.0 mphPartly Cloudy
11:00 AM71.6 °F62.6 °F73 %29.98 in6.2 miNorth (350°)15.0 mphPartly Cloudy
12:00 PM71.6 °F62.6 °F73 %29.95 in6.2 miNNW (340°)13.8 mphPartly Cloudy
12:00 PM71.6 °F62.6 °F73 %29.95 in6.2 miNNW (340°)13.8 mphPartly Cloudy
1:00 PM71.6 °F62.6 °F73 %29.92 inNNW (340°)12.7 mphClear
1:00 PM71.6 °F62.6 °F73 %29.92 inNNW (340°)12.7 mphClear
2:00 PM73.4 °F62.6 °F69 %29.86 inNNW (340°)10.4 mphClear
2:00 PM73.4 °F62.6 °F69 %29.86 inNNW (340°)10.4 mphClear
3:00 PM74.0 °F62.0 °F57 %29.88 in12.0 miNorth (350°)12.7 mph
3:00 PM73.4 °F62.6 °F69 %29.86 inNorth (350°)12.7 mphClear
3:00 PM73.4 °F62.6 °F69 %29.86 inNorth (350°)12.7 mphClear
3:00 PM74.0 °F62.0 °F57 %29.88 in12.0 miNorth (350°)12.7 mph
4:00 PM71.6 °F62.6 °F73 %29.86 inNNW (340°)8.1 mphClear
4:00 PM71.6 °F62.6 °F73 %29.86 inNNW (340°)8.1 mphClear
5:00 PM69.8 °F62.6 °F78 %29.86 inNNW (330°)8.1 mphClear
5:00 PM69.8 °F62.6 °F78 %29.86 inNNW (330°)8.1 mphClear
6:00 PM68.0 °F62.6 °F83 %29.86 inNorth (350°)10.4 mphClear
6:00 PM68.0 °F62.6 °F83 %29.86 inNorth (350°)10.4 mphClear
7:00 PM69.8 °F62.6 °F78 %29.83 inNorth (350°)8.1 mphClear
7:00 PM69.8 °F62.6 °F78 %29.83 inNorth (350°)8.1 mphClear
8:00 PM68.0 °F62.6 °F83 %29.83 inNNW (330°)8.1 mphClear
8:00 PM68.0 °F62.6 °F83 %29.83 inNNW (330°)8.1 mphClear
9:00 PM68.0 °F64.4 °F88 %29.83 inNW (310°)9.2 mphClear
9:00 PM67.0 °F64.0 °F86 %29.84 in12.0 miNW (310°)9.2 mph
9:00 PM67.0 °F64.0 °F86 %29.84 in12.0 miNW (310°)9.2 mph
9:00 PM68.0 °F64.4 °F88 %29.83 inNW (310°)9.2 mphClear
10:00 PM68.0 °F62.6 °F83 %29.83 inNW (310°)4.6 mphClear
10:00 PM68.0 °F62.6 °F83 %29.83 inNW (310°)4.6 mphClear
11:00 PM69.8 °F62.6 °F78 %29.83 inNorth (350°)9.2 mphClear
11:00 PM69.8 °F62.6 °F78 %29.83 inNorth (350°)9.2 mphClear
Hourly data recorded from SBFL, located miles away from Florianopolis, Santa Catarina







STORIES FROM OUR PARTNERS